Location: *
(49.3500°N, 12.6000°E)
Time: 12:58:01
(UTC+00:00)

Cosmos 1833 Rocket - Pass Details

Date: 18 October 2019
Orbit: 833 x 839 km, 71.0° (Epoch: 12 November)

Event Time Altitude Azimuth Distance (km) Brightness Sun altitude
Rises 18:15:56 0° 329° (NNW) 3,393 6.4 -20.5°
Reaches altitude 10° 18:18:24 10° 326° (NW) 2,456 5.7 -20.9°
Maximum altitude 18:23:55 60° 248° (WSW) 956 3.2 -21.8°
Enters shadow 18:28:49 13° 171° (S) 2,222 4.7 -22.6°
